Home > Weather > Ganganagar > Past weeks

Flag for India Weather for the Past 2 Weeks in Ganganagar, Rajasthan, India

Now
52 °F

Fog.


Feels Like: 51 °F
Forecast: 50 / 75 °F
Wind: 3 mph from Northeast

Location: Lahore Airport

Current Time: Feb 8, 2016 at 6:25:03 AM

Latest Report: Feb 8, 2016 at 5:25 AM


Visibility: 2 mi

Pressure: 30.04 "Hg

Humidity: 82%

Dew point: 46 °F

Location of GanganagarLocation

Historic Weather in Ganganagar — Graph

°F

Ganganagar Temperature Yesterday

Maximum temperature yesterday: 70 °F (at 2:55 PM)
Minimum temperature yesterday: 50 °F (at 7:55 AM)
Average temperature yesterday: 60 °F

High & Low Weather Summary for the Past Weeks

 TemperatureHumidityPressure
High75 °F (Feb 5, 2:25 PM)100% (Jan 26, 1:25 AM)30.18 "Hg (Jan 26, 1:25 AM)
Low39 °F (Jan 24, 7:30 AM)25% (Feb 4, 4:00 PM)29.74 "Hg (Jan 26, 12:30 PM)
Average57 °F69%30.04 "Hg
* Reported Jan 24 3:30 AM — Feb 8 4:25 AM, Ganganagar, Weather by CustomWeather, © 2016

Note: Actual official high and low records may vary slightly from our data, if they occured in-between our weather recording intervals... More about our weather records

Advertising

Ganganagar Weather History for the Previous 24 Hours

 ConditionsComfort  
Time TempWeatherWind HumidityBarometerVisibility
4:25 AM
Mon, Feb 8
54 °FFog.No wind82%30.04 "Hg1 mi
3:55 AM54 °FFog.No wind88%30.07 "Hg1 mi
3:25 AM54 °FFog.3 mph82%30.04 "Hg1 mi
2:55 AM54 °FFog.No wind88%30.07 "Hg2 mi
2:25 AM55 °FClear.No wind82%30.07 "Hg2 mi
1:55 AM55 °FClear.6 mph82%30.07 "Hg2 mi
1:25 AM55 °FClear.6 mph82%30.07 "Hg2 mi
12:55 AM57 °FClear.No wind77%30.07 "Hg2 mi
12:25 AM57 °FClear.No wind77%30.09 "Hg2 mi
11:55 PM
Sun, Feb 7
57 °FClear.No wind77%30.09 "Hg2 mi
11:25 PM57 °FClear.No wind77%30.09 "Hg2 mi
10:55 PM59 °FClear.No wind72%30.09 "Hg2 mi
10:25 PM59 °FClear.No wind72%30.07 "Hg2 mi
9:55 PM61 °FClear.5 mph68%30.07 "Hg2 mi
9:25 PM61 °FClear.No wind68%30.07 "Hg3 mi
8:55 PM61 °FClear.No wind68%30.07 "Hg3 mi
8:25 PM61 °FClear.No wind68%30.07 "Hg3 mi
8:00 PM63 °FClear.No wind68%30.04 "Hg3 mi
7:25 PM63 °FClear.5 mph68%30.04 "Hg3 mi
7:00 PM64 °FClear.3 mph64%30.04 "Hg3 mi
6:25 PM64 °FClear.3 mph64%30.01 "Hg3 mi
6:00 PM66 °FPassing clouds.5 mph60%30.01 "Hg3 mi
5:30 PM68 °FPassing clouds.5 mph56%30.01 "Hg3 mi
5:00 PM68 °FPassing clouds.6 mph56%30.01 "Hg3 mi
4:30 PM70 °FPassing clouds.6 mph53%30.01 "Hg3 mi
4:00 PM70 °FPassing clouds.6 mph53%30.04 "Hg3 mi
3:25 PM70 °FPassing clouds.5 mph53%30.04 "Hg3 mi
2:55 PM70 °FRain. Smoke.5 mph53%30.04 "Hg3 mi
2:25 PM68 °FClear.6 mph56%30.04 "Hg3 mi
1:55 PM66 °FPassing clouds.No wind60%30.04 "Hg3 mi
1:29 PM66 °FPassing clouds.No wind60%30.07 "Hg3 mi
12:55 PM63 °FScattered clouds.No wind73%30.07 "Hg3 mi
12:00 PM61 °FScattered clouds.No wind72%30.09 "Hg3 mi
11:29 AM61 °FScattered clouds.No wind72%30.09 "Hg3 mi
11:00 AM59 °FScattered clouds.5 mph77%30.09 "Hg2 mi
10:25 AM57 °FScattered clouds.No wind77%30.09 "Hg2 mi
9:55 AM55 °FScattered clouds.3 mph77%30.09 "Hg2 mi
9:25 AM54 °FFog.No wind82%30.07 "Hg1 mi
8:55 AM52 °FFog.No wind88%30.04 "Hg1 mi
8:25 AM52 °FFog.3 mph88%30.04 "Hg1 mi
7:55 AM50 °FFog.7 mph88%30.01 "Hg1 mi
Weather by CustomWeather, © 2016

See weather overviewHow to use our weather pages